Weather History for Douglas Bisbee, AZ

Change the Weather History Date:

Friday, June 28, 2013

  Actual Average Record
Temperature  
Mean Temperature 88 °F 81 °F  
Max Temperature 106 °F 97 °F 107 °F (1994)
Min Temperature 69 °F 64 °F 53 °F (1955)
Degree Days  
Heating Degree Days 0 0  
Month to date heating degree days 0 0  
Since 1 June heating degree days 0 0  
Since 1 July heating degree days 2559 2522  
Cooling Degree Days 23 16  
Month to date cooling degree days 465 363  
Year to date cooling degree days 665 564  
Since 1 June cooling degree days 465 363  
Growing Degree Days 37 (Base 50)    
Moisture  
Dew Point 29 °F    
Average Humidity 15    
Maximum Humidity 22    
Minimum Humidity 7    
Precipitation  
Precipitation 0.00 in 0.04 in 0.46 in (1957)
Month to date precipitation 0.10 0.53  
Year to date precipitation 0.97 2.93  
Snow  
Snow 0.00 in - - ()
Month to date snowfall 0.0  
Snow Depth 0.00 in    
Sea Level Pressure  
Sea Level Pressure 29.83 in    
Wind  
Wind Speed 9 mph (ENE)    
Max Wind Speed 29 mph    
Max Gust Speed 35 mph    
Visibility 10 miles    
Events      
T = Trace of Precipitation, MM = Missing Value Source: NWS Daily Summary

Daily Weather History Graph

Daily Weather History Graph

Search for Another Location

Airport:

Trip Planner

Search our weather history database for the weather conditions in past years. The results will help you decide how hot, cold, wet, or windy it might be!

Date:

Astronomy

Jun. 28, 2013 Rise Set
Actual Time 5:16 AM MST 7:27 PM MST
Civil Twilight 4:48 AM MST 7:55 PM MST
Nautical Twilight 4:14 AM MST 8:29 PM MST
Astronomical Twilight 3:37 AM MST 9:06 PM MST
Moon 11:24 PM MST (6/28) 11:03 AM MST (6/28)
Length of Visible Light 15h 06m
Length of Day
14h 10m
Waning Gibbous, 65% of the Moon is Illuminated
Jun 28
Waning Gibbous
Jun 29
Last Quarter
Jul 8
New
Jul 15
First Quarter
Jul 22
Full

Hourly Weather History & Observations

Time (MST) Temp. Dew Point Humidity Pressure Visibility Wind Dir Wind Speed Gust Speed Precip Events Conditions
12:56 AM 73.0 °F 28.0 °F 19% 29.86 in 10.0 mi NNW 8.1 mph - N/A   Clear
1:56 AM 71.1 °F 28.0 °F 20% 29.85 in 10.0 mi NNW 10.4 mph - N/A   Clear
2:56 AM 73.9 °F 28.0 °F 18% 29.83 in 10.0 mi NNW 6.9 mph - N/A   Clear
3:56 AM 70.0 °F 28.0 °F 21% 29.84 in 10.0 mi NNW 3.5 mph - N/A   Clear
4:56 AM 71.1 °F 28.0 °F 20% 29.84 in 10.0 mi NW 8.1 mph - N/A   Clear
5:56 AM 70.0 °F 28.0 °F 21% 29.87 in 10.0 mi North 5.8 mph - N/A   Clear
6:56 AM 77.0 °F 28.0 °F 17% 29.90 in 10.0 mi Calm Calm - N/A   Clear
7:56 AM 82.9 °F 28.9 °F 14% 29.89 in 10.0 mi West 3.5 mph - N/A   Clear
8:56 AM 91.0 °F 26.1 °F 10% 29.88 in 10.0 mi Variable 6.9 mph - N/A   Clear
9:56 AM 93.0 °F 26.1 °F 9% 29.88 in 10.0 mi Variable 4.6 mph - N/A   Clear
10:56 AM 97.0 °F 25.0 °F 8% 29.87 in 10.0 mi East 6.9 mph - N/A   Clear
11:56 AM 100.9 °F 27.0 °F 7% 29.85 in 10.0 mi East 12.7 mph 18.4 mph N/A   Clear
12:56 PM 102.0 °F 28.0 °F 7% 29.83 in 10.0 mi NE 8.1 mph 16.1 mph N/A   Clear
1:56 PM 104.0 °F 30.0 °F 8% 29.80 in 10.0 mi East 11.5 mph 25.3 mph N/A   Clear
2:56 PM 102.0 °F 34.0 °F 9% 29.79 in 10.0 mi East 16.1 mph 25.3 mph N/A   Clear
3:56 PM 99.0 °F 30.9 °F 9% 29.81 in 10.0 mi ESE 24.2 mph 29.9 mph N/A   Clear
4:56 PM 99.0 °F 30.0 °F 9% 29.79 in 10.0 mi ESE 17.3 mph - N/A   Clear
5:56 PM 98.1 °F 28.9 °F 9% 29.79 in 10.0 mi East 11.5 mph - N/A   Clear
6:56 PM 96.1 °F 30.0 °F 10% 29.77 in 10.0 mi East 9.2 mph - N/A   Clear
7:56 PM 93.0 °F 30.0 °F 11% 29.78 in 10.0 mi ESE 11.5 mph - N/A   Clear
8:56 PM 88.0 °F 30.0 °F 12% 29.79 in 10.0 mi East 8.1 mph - N/A   Clear
9:56 PM 84.0 °F 28.9 °F 14% 29.81 in 10.0 mi ENE 8.1 mph - N/A   Clear
10:56 PM 82.0 °F 28.9 °F 14% 29.81 in 10.0 mi East 6.9 mph - N/A   Clear
11:56 PM 84.0 °F 30.0 °F 14% 29.80 in 10.0 mi East 11.5 mph - N/A   Clear